AirNav   TITAN Aviation Fuels
 
 1017 users online  

KCEA Cessna Aircraft Field Airport
Wichita, Kansas, USA

GOING TO WICHITA?


FAA INFORMATION EFFECTIVE 15 JULY 2021

Location

FAA Identifier: CEA
Lat/Long: 37-38-54.9540N 097-15-02.1580W
37-38.915900N 097-15.035967W
37.6485983,-97.2505994
(estimated)
Elevation: 1378 ft. / 420.0 m (surveyed)
Variation: 08E (1980)
From city: 4 miles SE of WICHITA, KS
Time zone: UTC -5 (UTC -6 during Standard Time)
Zip code: 67210

Airport Operations

Airport use: Open to the public
Activation date: 04/1940
Control tower: no
ARTCC: KANSAS CITY CENTER
FSS: WICHITA FLIGHT SERVICE STATION
NOTAMs facility: ICT (NOTAM-D service available)
Attendance: UNATNDD
Wind indicator: yes
Segmented circle: yes

Airport Communications

CTAF: 122.9
WICHITA APPROACH: 134.8
WICHITA DEPARTURE: 134.8
CLEARANCE DELIVERY: 125.0
WX AWOS-3PT at BEC (3 nm NE): 119.45 (316-515-7116)
WX ASOS at AAO (6 nm N): 134.025 (316-636-2541)
WX AWOS-3PT at 3AU (8 nm E): 124.175 (316-733-6696)
WX ASOS at ICT (9 nm W): PHONE 316-945-8022
WX AWOS-3 at 1K1 (10 nm NE): 118.3 (316-530-6004)

Nearby radio navigation aids

VOR radial/distance  VOR name  Freq  Var
ICTr103/16.8WICHITA VORTAC113.8007E
HUTr119/38.6HUTCHINSON VOR/DME116.8004E

 
NDB name  Hdg/Dist  Freq  Var  ID
PICHE063/10.633204EIC .. -.-.

Airport Services

Airframe service: NONE
Powerplant service: NONE
Bottled oxygen: NONE
Bulk oxygen: NONE

Runway Information

Runway 17/35

Dimensions: 3873 x 40 ft. / 1180 x 12 m
Surface: asphalt, in good condition
RUNWAY 17  RUNWAY 35
Latitude: 37-39.234483N37-38.596317N
Longitude: 097-15.035200W097-15.035750W
Elevation: 1373.0 ft.1373.0 ft.
Traffic pattern: leftright
Runway heading: 172 magnetic, 180 true352 magnetic, 000 true
Displaced threshold: 150 ft.150 ft.
Markings: basic, in good conditionbasic, in good condition
Obstructions: 10 ft. road, 252 ft. from runway, 5:1 slope to clear
APCH RATIO 40:1 TO DSPLCD THLD.
13 ft. road, 210 ft. from runway
8 FT FENCE 170 FT FM RY END.

Airport Ownership and Management from official FAA records

Ownership: Privately-owned
Owner: CESSNA AIRCRAFT COMPANY
10511 EAST CENTRAL
WICHITA, KS 67277
Phone (316) 515-6000
Manager: TODD BAYLESS
10511 EAST CENTRAL
WICHITA, KS 67201
Phone (316) 515-8365

Airport Operational Statistics

Aircraft based on the field: 16
Single engine airplanes: 15
Multi engine airplanes: 1
    
Aircraft operations: 100/year *
100% transient general aviation
* for 12-month period ending 19 July 2019

Additional Remarks

ACFT OPNS SHOULD COORDINATE WITH MC CONNELL AFB PRIOR TO ARRIVAL AND DEP - CONTROL TOWER 127.25.
RWY 17R/35L USED ONLY BY CESSNA PERSONNEL; CLOSED TO PUBLIC.
FOR CD CTC WICHITA APCH AT 316-350-1520.

Instrument Procedures

NOTE: All procedures below are presented as PDF files. If you need a reader for these files, you should download the free Adobe Reader.

NOT FOR NAVIGATION. Please procure official charts for flight.
FAA instrument procedures published for use from 15 July 2021 at 0901Z to 12 August 2021 at 0900z.

 
IAPs - Instrument Approach Procedures
RNAV (GPS)-D   download (187KB)
VOR-C   download (192KB)

Other nearby airports with instrument procedures:

KIAB - Mc Connell Air Force Base (2 nm SW)
KBEC - Beech Factory Airport (3 nm NE)
KAAO - Colonel James Jabara Airport (6 nm N)
3AU - Augusta Municipal Airport (8 nm E)
KICT - Wichita Dwight D Eisenhower National Airport (9 nm W)
1K1 - Lloyd Stearman Field Airport (10 nm NE)
 
Loc | Ops | Rwys | IFR | FBO | Links
Com | Nav | Svcs | Stats | Notes
Area around KCEA (Cessna Aircraft Field Airport)
 
Road maps at: MapQuest Bing Google
 
Aerial photo
WARNING: Photo may not be current or correct
Aerial photo of KCEA (Cessna Aircraft Field Airport)
Do you have a better or more recent aerial photo of Cessna Aircraft Field Airport that you would like to share? If so, please send us your photo.

 
Sectional chart

 
Airport distance calculator
Flying to Cessna Aircraft Field Airport? Find the distance to fly.

From to KCEA

Sunrise and sunset
Times for 04-Aug-2021
 Local
(UTC-5)
 Zulu
(UTC)
Morning civil twilight06:0711:07
Sunrise06:3611:36
Sunset20:3401:34
Evening civil twilight21:0302:03

Current date and time
Zulu (UTC)  04-Aug-2021 12:28:10
Local (UTC-5)  04-Aug-2021 07:28:10
 
METAR
KIAB 
2nm S 
041156Z AUTO 13004KT 10SM FEW100 19/16 A3012 RMK AO2 SLP191 T01870156 10211 20186 52011 $
KBEC 
3nm NE 
041215Z AUTO 10003KT 10SM BKN100 18/15 A3012 RMK AO2 T01770153
KAAO 
6nm N 
041154Z AUTO 07003KT 10SM SCT100 17/14 A3012 RMK AO2 SLP188 T01670144 10200 20167 53010
K3AU 
8nm E 
041215Z AUTO 07004KT 10SM BKN100 17/15 A3013 RMK AO2
KICT 
9nm W 
041153Z 15003KT 8SM FEW110 18/14 A3011 RMK AO2 SLP185 T01780144 10211 20172 53009
K1K1 
10nm NE 
041215Z AUTO 00000KT 7SM BKN100 17/15 A3013 RMK AO2 T01680151
TAF
KIAB 
2nm S 
041013Z 0410/0516 14009KT 9999 FEW080 QNH3002INS BECMG 0505/0506 17009KT 9999 BKN090 QNH3004INS BECMG 0508/0509 17009KT 9999 OVC080 QNH3004INS BECMG 0509/0510 19009KT 9999 VCSH OVC080 QNH3005INS TX30/0421Z TN19/0410Z
KICT 
9nm W 
041134Z 0412/0512 VRB03KT 6SM FU SCT080 FM041500 16006KT 6SM FU FEW200 FM050300 17008KT P6SM SCT040 BKN200
NOTAMs
Click for the latest NOTAMs
NOTAMs are issued by the DoD/FAA and will open in a separate window not controlled by AirNav.

 

 
 

Would you like to see your business listed on this page?

 If your business provides an interesting product or service to pilots, flight crews, aircraft, or users of the Cessna Aircraft Field Airport, you should consider listing it here.  To start the listing process, click on the button below
 
Add a business
 

Other Pages about Cessna Aircraft Field Airport

Update a link
 
Copyright © AirNav, LLC. All rights reserved. Privacy Policy  Contact